Simultaneous Nadir Overpasses (SNOs) Predictions

Prediction of SNOs between GOES-14 and NOAA-20 Satellite Orbit:

Table of predicted SNOs for the next 14.0 days since TLE Epoch: 2/24/2024
Index Date Time (GOES-14) GOES-14 Lat,Lon NOAA-20 Lat,Lon Distance(km) Time Diff (sec)
1 02/24/2024 08:24:30 0.05,-108.37 -0.64,-105.22 359.34 80
2 02/25/2024 20:49:06 -0.06,-108.38 -0.55,-110.52 243.55 80
3 02/26/2024 20:27:42 -0.05,-108.38 0.48,-105.99 272.48 80
4 02/28/2024 08:52:09 0.06,-108.35 0.70,-111.25 329.99 80
5 02/29/2024 08:30:45 0.06,-108.35 -0.33,-106.72 185.67 80
6 03/01/2024 20:52:40 -0.07,-108.35 -0.91,-112.01 417.94 80
7 03/02/2024 20:36:36 -0.06,-108.34 0.12,-107.48 97.75 80
8 03/05/2024 08:36:57 0.07,-108.30 0.07,-108.21 10.31 80
9 03/07/2024 20:42:48 -0.08,-108.28 -0.26,-108.97 79.18 80
10 03/08/2024 20:21:24 -0.08,-108.27 0.78,-104.45 436.31 80
